User: anonymous   Login
Location: Mount Wilson Observatory
(34.2257°N, 118.0571°W)
Time: 07:08:57
(UTC-07:00)
Language:

ATLAS 3B CENTAUR R/B - Orbit

View from above orbital plane
View from above orbital plane
View from above satellite
View from above satellite

Ground track
Ground track

The orbit data is extracted from the following two-line orbital elements,

1 28118U 03057B   17081.90092906 +.00070581 +00000-0 +10092-2 0  9992
2 28118 028.1448 356.7261 3113761 249.4856 074.7435 09.25260945113220
Epoch (UTC): 22 March 2017 21:37:20
Eccentricity: 0.3113761
inclination: 28.1448°
perigee height: 222 km
apogee height: 6190 km
right ascension of ascending node: 356.7261°
argument of perigee: 249.4856°
revolutions per day: 9.25260945
mean anomaly at epoch: 74.7435°
orbit number at epoch: 11322

The dashed part of the orbit path shows where the satellite is in the earth's shadow,  

DLR